Hourly Weather Bolshie Osetki

Today, 30 July, Friday

Time Temperature Precipitation Wind Pressure Humidity
00:00 +17°C° 0 mm 2 mps 741 mmHg 96%
01:00 +17°C° 0 mm 2 mps 741 mmHg 96%
02:00 +17°C° 0 mm 2 mps 741 mmHg 95%
03:00 +17°C° 0 mm 2 mps 741 mmHg 94%
04:00 +16°C° 0 mm 2 mps 740 mmHg 93%
05:00 +16°C° 0 mm 2 mps 740 mmHg 91%
06:00 +18°C° 0 mm 2 mps 741 mmHg 83%
07:00 +20°C° 0 mm 2 mps 741 mmHg 75%
08:00 +21°C° 0 mm 2 mps 741 mmHg 67%
09:00 +21°C° 0.1 mm 2 mps 741 mmHg 65%
10:00 +23°C° 0.1 mm 2 mps 741 mmHg 63%
11:00 +23°C° 0.1 mm 2 mps 741 mmHg 61%
12:00 +24°C° 0 mm 3 mps 740 mmHg 55%
13:00 +25°C° 0 mm 3 mps 740 mmHg 49%
14:00 +26°C° 0 mm 4 mps 740 mmHg 39%
15:00 +26°C° 0 mm 4 mps 740 mmHg 40%
16:00 +25°C° 0 mm 5 mps 740 mmHg 41%
17:00 +25°C° 0 mm 5 mps 739 mmHg 42%
18:00 +23°C° 0 mm 4 mps 739 mmHg 48%
19:00 +21°C° 0 mm 4 mps 739 mmHg 54%
20:00 +20°C° 0 mm 3 mps 739 mmHg 60%
21:00 +19°C° 0 mm 3 mps 739 mmHg 59%
22:00 +19°C° 0 mm 4 mps 739 mmHg 59%
23:00 +19°C° 0 mm 4 mps 739 mmHg 58%

Tomorrow, 31 July, Saturday

Time Temperature Precipitation Wind Pressure Humidity
00:00 +18°C° 0 mm 4 mps 739 mmHg 61%
01:00 +17°C° 0 mm 4 mps 739 mmHg 63%
02:00 +15°C° 0 mm 4 mps 739 mmHg 66%
03:00 +15°C° 0 mm 4 mps 739 mmHg 67%
04:00 +15°C° 0 mm 4 mps 739 mmHg 67%
05:00 +15°C° 0 mm 5 mps 739 mmHg 68%
06:00 +16°C° 0 mm 5 mps 739 mmHg 65%
07:00 +19°C° 0 mm 5 mps 739 mmHg 62%
08:00 +20°C° 0 mm 6 mps 739 mmHg 59%
09:00 +21°C° 0 mm 6 mps 740 mmHg 56%
10:00 +23°C° 0 mm 6 mps 740 mmHg 52%
11:00 +24°C° 0 mm 6 mps 740 mmHg 49%
12:00 +24°C° 0 mm 6 mps 740 mmHg 47%
13:00 +26°C° 0 mm 6 mps 740 mmHg 45%
14:00 +27°C° 0 mm 5 mps 740 mmHg 43%
15:00 +27°C° 0 mm 5 mps 740 mmHg 43%
16:00 +27°C° 0 mm 5 mps 740 mmHg 42%
17:00 +27°C° 0 mm 4 mps 741 mmHg 42%
18:00 +25°C° 0 mm 3 mps 741 mmHg 48%
19:00 +23°C° 0 mm 2 mps 741 mmHg 55%
20:00 +20°C° 0 mm 2 mps 741 mmHg 62%
21:00 +19°C° 0 mm 2 mps 741 mmHg 65%
22:00 +19°C° 0 mm 2 mps 741 mmHg 68%
23:00 +18°C° 0 mm 2 mps 741 mmHg 71%

Day after tomorrow, 1 August, Sunday

Time Temperature Precipitation Wind Pressure Humidity
00:00 +18°C° 0.1 mm 2 mps 741 mmHg 74%
01:00 +17°C° 0.1 mm 2 mps 741 mmHg 78%
02:00 +17°C° 0.1 mm 2 mps 741 mmHg 81%
03:00 +17°C° 0.6 mm 2 mps 741 mmHg 86%
04:00 +17°C° 0.6 mm 2 mps 740 mmHg 91%
05:00 +17°C° 0.6 mm 3 mps 740 mmHg 95%
06:00 +18°C° 0.1 mm 3 mps 740 mmHg 92%
07:00 +19°C° 0.1 mm 4 mps 740 mmHg 88%
08:00 +20°C° 0.1 mm 4 mps 740 mmHg 85%
09:00 +22°C° 0 mm 4 mps 741 mmHg 71%
10:00 +25°C° 0 mm 5 mps 741 mmHg 57%
11:00 +27°C° 0 mm 5 mps 741 mmHg 43%
12:00 +27°C° 0 mm 5 mps 741 mmHg 41%
13:00 +27°C° 0 mm 5 mps 741 mmHg 39%
14:00 +28°C° 0 mm 5 mps 741 mmHg 37%
15:00 +28°C° 0 mm 5 mps 741 mmHg 37%
16:00 +27°C° 0 mm 4 mps 741 mmHg 38%
17:00 +27°C° 0 mm 4 mps 741 mmHg 39%
18:00 +25°C° 0 mm 3 mps 741 mmHg 47%
19:00 +22°C° 0 mm 3 mps 741 mmHg 55%
20:00 +20°C° 0 mm 2 mps 742 mmHg 63%
21:00 +20°C° 0 mm 2 mps 742 mmHg 63%
22:00 +20°C° 0 mm 2 mps 742 mmHg 64%
23:00 +20°C° 0 mm 2 mps 742 mmHg 65%

2 August, Monday

Time Temperature Precipitation Wind Pressure Humidity
00:00 +20°C° 0 mm 1 mps 742 mmHg 68%
01:00 +20°C° 0 mm 1 mps 742 mmHg 72%
02:00 +19°C° 0 mm 1 mps 742 mmHg 76%
03:00 +19°C° 0.1 mm 1 mps 742 mmHg 80%
04:00 +18°C° 0.1 mm 1 mps 741 mmHg 85%
05:00 +18°C° 0.1 mm 1 mps 741 mmHg 90%
06:00 +18°C° 1 mm 1 mps 740 mmHg 92%
07:00 +18°C° 1 mm 1 mps 740 mmHg 94%
08:00 +16°C° 1 mm 2 mps 739 mmHg 96%
09:00 +16°C° 5.4 mm 2 mps 739 mmHg 97%
10:00 +16°C° 5.4 mm 2 mps 739 mmHg 97%
11:00 +16°C° 5.4 mm 2 mps 738 mmHg 98%
12:00 +16°C° 2.2 mm 2 mps 738 mmHg 98%
13:00 +16°C° 2.2 mm 2 mps 738 mmHg 98%
14:00 +17°C° 2.2 mm 2 mps 738 mmHg 98%
15:00 +17°C° 0.3 mm 2 mps 738 mmHg 97%
16:00 +17°C° 0.3 mm 3 mps 738 mmHg 97%
17:00 +17°C° 0.3 mm 3 mps 739 mmHg 97%
18:00 +16°C° 0 mm 2 mps 739 mmHg 97%
19:00 +16°C° 0 mm 2 mps 739 mmHg 97%
20:00 +16°C° 0 mm 1 mps 740 mmHg 97%
21:00 +16°C° 0.1 mm 1 mps 740 mmHg 97%
22:00 +15°C° 0.1 mm 2 mps 740 mmHg 97%
23:00 +15°C° 0.1 mm 2 mps 740 mmHg 97%

3 August, Tuesday

Time Temperature Precipitation Wind Pressure Humidity
00:00 +15°C° 0 mm 2 mps 740 mmHg 97%
01:00 +15°C° 0 mm 2 mps 740 mmHg 97%
02:00 +15°C° 0 mm 2 mps 740 mmHg 96%
03:00 +14°C° 0 mm 2 mps 740 mmHg 96%
04:00 +14°C° 0 mm 2 mps 741 mmHg 96%
05:00 +13°C° 0 mm 2 mps 741 mmHg 96%
06:00 +14°C° 0 mm 2 mps 742 mmHg 92%
07:00 +14°C° 0 mm 3 mps 742 mmHg 87%
08:00 +16°C° 0 mm 3 mps 742 mmHg 83%
09:00 +17°C° 0.2 mm 3 mps 742 mmHg 78%
10:00 +18°C° 0.2 mm 3 mps 743 mmHg 74%
11:00 +19°C° 0.2 mm 4 mps 743 mmHg 70%
12:00 +20°C° 0.4 mm 4 mps 743 mmHg 69%
13:00 +20°C° 0.4 mm 4 mps 743 mmHg 67%
14:00 +20°C° 0.4 mm 4 mps 743 mmHg 66%
15:00 +20°C° 0.3 mm 3 mps 743 mmHg 64%
16:00 +21°C° 0.3 mm 3 mps 744 mmHg 62%
17:00 +21°C° 0.3 mm 3 mps 744 mmHg 60%
18:00 +19°C° 0 mm 2 mps 744 mmHg 65%
19:00 +18°C° 0 mm 2 mps 744 mmHg 69%
20:00 +16°C° 0 mm 2 mps 745 mmHg 74%
21:00 +16°C° 0 mm 1 mps 745 mmHg 77%
22:00 +15°C° 0 mm 1 mps 746 mmHg 80%
23:00 +14°C° 0 mm 1 mps 746 mmHg 83%

4 August, Wednesday

Time Temperature Precipitation Wind Pressure Humidity
00:00 +13°C° 0 mm 1 mps 746 mmHg 85%
01:00 +13°C° 0 mm 1 mps 747 mmHg 87%
02:00 +12°C° 0 mm 1 mps 747 mmHg 88%
03:00 +12°C° 0 mm 1 mps 747 mmHg 89%
04:00 +11°C° 0 mm 0 mps 747 mmHg 89%
05:00 +11°C° 0 mm 0 mps 748 mmHg 90%
06:00 +13°C° 0 mm 0 mps 748 mmHg 81%
07:00 +15°C° 0 mm 0 mps 748 mmHg 73%
08:00 +17°C° 0 mm 0 mps 748 mmHg 64%
09:00 +19°C° 0 mm 0 mps 748 mmHg 57%
10:00 +22°C° 0 mm 1 mps 748 mmHg 50%
11:00 +24°C° 0 mm 1 mps 748 mmHg 43%
12:00 +24°C° 0 mm 1 mps 748 mmHg 40%
13:00 +25°C° 0 mm 1 mps 748 mmHg 38%
14:00 +26°C° 0 mm 1 mps 748 mmHg 35%
15:00 +25°C° 0 mm 1 mps 748 mmHg 36%
16:00 +25°C° 0 mm 1 mps 748 mmHg 38%
17:00 +24°C° 0 mm 1 mps 748 mmHg 39%
18:00 +22°C° 0 mm 1 mps 748 mmHg 45%
19:00 +21°C° 0 mm 1 mps 748 mmHg 52%
20:00 +19°C° 0 mm 1 mps 748 mmHg 59%
21:00 +17°C° 0 mm 2 mps 747 mmHg 60%
22:00 +17°C° 0 mm 2 mps 747 mmHg 61%
23:00 +16°C° 0 mm 2 mps 747 mmHg 61%
Show more

We Need Your Consent

Meteoprog and our Service Providers may store and access personal data such as cookies, device identifiers or other similar technologies on your device and process such data to personalise content and ads, as well as provide social media features and to analyse the traffic.

  • Store and/or access information on your device

    Cookies, device identifiers or other information can be stored or accessed on your device for the purposes indicated above.

  • Personalised ads and content, ad and content measurement, audience insights, and products development

    Ads and content can be personalised based on a profile. More data can be added to better personalise ads and content. Ad and content performance can be measured. Insights about the audience who saw the ads and content can be derived. Such data can be used to develop or improve user’s experience, systems and software.

By clicking ‘I Agree’ you will allow the use of indicated cookies, device identifiers, web beacons or other similar technologies. Your settings can be changed in the browser on your device.

For certain purposes, legitimate interests may be relied on, rather than consent. You can read more about this in our Privacy and Cookie Policy.